When you browse on this site, cookies collect data to enhance your experience and personalize the content and advertising you see.
Visit our Privacy Policy to learn more. By continuing to use the site, you agree to this use of cookies and data.
  • Em Portugal
  • Lista de países
  • Para 7 dias
  • Temperatura da água
  • Mapa do tempo
  • Widgets de tempo
  • user-avatar
    Iniciar Sessão

    Previsão horária em Ourense

    Hoje, 20 Novembro, Quarta-feira

    Tempo Temperatura Precipitação Vento Pressão Humidade
    00:00 +8°C° 0.3 mm 1 m/s 729 mmHg 96%
    01:00 +8°C° 0.3 mm 1 m/s 729 mmHg 96%
    02:00 +8°C° 0.3 mm 1 m/s 728 mmHg 97%
    03:00 +8°C° 0.3 mm 1 m/s 728 mmHg 97%
    04:00 +8°C° 0.3 mm 1 m/s 727 mmHg 97%
    05:00 +8°C° 0.3 mm 1 m/s 727 mmHg 97%
    06:00 +9°C° 0.2 mm 1 m/s 727 mmHg 96%
    07:00 +9°C° 0.2 mm 1 m/s 727 mmHg 95%
    08:00 +9°C° 0.2 mm 1 m/s 727 mmHg 95%
    09:00 +10°C° 0.3 mm 1 m/s 727 mmHg 93%
    10:00 +9°C° 0.3 mm 2 m/s 726 mmHg 92%
    11:00 +9°C° 0.3 mm 2 m/s 726 mmHg 91%
    12:00 +9°C° 1.2 mm 2 m/s 726 mmHg 92%
    13:00 +9°C° 1.2 mm 2 m/s 725 mmHg 93%
    14:00 +9°C° 1.2 mm 2 m/s 725 mmHg 95%
    15:00 +8°C° 0.1 mm 2 m/s 725 mmHg 95%
    16:00 +8°C° 0.1 mm 1 m/s 725 mmHg 96%
    17:00 +8°C° 0.1 mm 1 m/s 725 mmHg 96%
    18:00 +8°C° 0.1 mm 1 m/s 725 mmHg 96%
    19:00 +8°C° 0.1 mm 1 m/s 726 mmHg 95%
    20:00 +8°C° 0.1 mm 1 m/s 726 mmHg 95%
    21:00 +8°C° 0.4 mm 1 m/s 726 mmHg 95%
    22:00 +8°C° 0.4 mm 1 m/s 726 mmHg 95%
    23:00 +8°C° 0.4 mm 1 m/s 726 mmHg 96%

    Amanhã, 21 Novembro, Quinta-feira

    Tempo Temperatura Precipitação Vento Pressão Humidade
    00:00 +8°C° 0.2 mm 1 m/s 726 mmHg 96%
    01:00 +7°C° 0.2 mm 1 m/s 726 mmHg 96%
    02:00 +7°C° 0.2 mm 1 m/s 726 mmHg 97%
    03:00 +7°C° 0 mm 1 m/s 726 mmHg 96%
    04:00 +7°C° 0 mm 1 m/s 726 mmHg 96%
    05:00 +7°C° 0 mm 1 m/s 726 mmHg 96%
    06:00 +8°C° 0 mm 1 m/s 726 mmHg 95%
    07:00 +8°C° 0 mm 1 m/s 727 mmHg 94%
    08:00 +9°C° 0 mm 1 m/s 727 mmHg 93%
    09:00 +9°C° 0.1 mm 2 m/s 727 mmHg 89%
    10:00 +10°C° 0.1 mm 2 m/s 726 mmHg 84%
    11:00 +12°C° 0.1 mm 2 m/s 726 mmHg 80%
    12:00 +12°C° 0.2 mm 2 m/s 726 mmHg 80%
    13:00 +12°C° 0.2 mm 2 m/s 726 mmHg 80%
    14:00 +12°C° 0.2 mm 2 m/s 725 mmHg 80%
    15:00 +10°C° 0.1 mm 2 m/s 725 mmHg 85%
    16:00 +9°C° 0.1 mm 2 m/s 725 mmHg 90%
    17:00 +9°C° 0.1 mm 1 m/s 725 mmHg 95%
    18:00 +9°C° 0 mm 1 m/s 725 mmHg 95%
    19:00 +9°C° 0 mm 1 m/s 725 mmHg 95%
    20:00 +8°C° 0 mm 2 m/s 724 mmHg 95%
    21:00 +8°C° 0.6 mm 2 m/s 723 mmHg 95%
    22:00 +8°C° 0.6 mm 2 m/s 722 mmHg 95%
    23:00 +8°C° 0.6 mm 2 m/s 721 mmHg 95%

    Depois de amanhã, 22 Novembro, Sexta-feira

    Tempo Temperatura Precipitação Vento Pressão Humidade
    00:00 +9°C° 1.1 mm 3 m/s 720 mmHg 95%
    01:00 +9°C° 1.1 mm 3 m/s 719 mmHg 95%
    02:00 +8°C° 1.1 mm 4 m/s 718 mmHg 94%
    03:00 +9°C° 2.6 mm 3 m/s 717 mmHg 95%
    04:00 +10°C° 2.6 mm 3 m/s 716 mmHg 96%
    05:00 +10°C° 2.6 mm 2 m/s 716 mmHg 98%
    06:00 +10°C° 4.2 mm 2 m/s 715 mmHg 97%
    07:00 +10°C° 4.2 mm 3 m/s 715 mmHg 97%
    08:00 +11°C° 4.2 mm 3 m/s 715 mmHg 97%
    09:00 +11°C° 0.7 mm 4 m/s 715 mmHg 94%
    10:00 +10°C° 0.7 mm 5 m/s 715 mmHg 91%
    11:00 +10°C° 0.7 mm 6 m/s 715 mmHg 89%
    12:00 +10°C° 0.4 mm 6 m/s 715 mmHg 90%
    13:00 +10°C° 0.4 mm 6 m/s 715 mmHg 91%
    14:00 +10°C° 0.4 mm 5 m/s 715 mmHg 93%
    15:00 +9°C° 0.5 mm 5 m/s 716 mmHg 93%
    16:00 +9°C° 0.5 mm 5 m/s 716 mmHg 94%
    17:00 +10°C° 0.5 mm 4 m/s 717 mmHg 94%
    18:00 +8°C° 1.3 mm 5 m/s 718 mmHg 94%
    19:00 +7°C° 1.3 mm 5 m/s 718 mmHg 95%
    20:00 +7°C° 1.3 mm 5 m/s 719 mmHg 95%
    21:00 +6°C° 0.8 mm 4 m/s 720 mmHg 95%
    22:00 +6°C° 0.8 mm 4 m/s 721 mmHg 94%
    23:00 +7°C° 0.8 mm 3 m/s 722 mmHg 94%

    23 Novembro, Sábado

    Tempo Temperatura Precipitação Vento Pressão Humidade
    00:00 +7°C° 0.2 mm 3 m/s 722 mmHg 94%
    01:00 +5°C° 0.2 mm 3 m/s 723 mmHg 95%
    02:00 +5°C° 0.2 mm 3 m/s 723 mmHg 95%
    03:00 +6°C° 0.1 mm 2 m/s 724 mmHg 95%
    04:00 +6°C° 0.1 mm 2 m/s 725 mmHg 96%
    05:00 +6°C° 0.1 mm 2 m/s 725 mmHg 96%
    06:00 +6°C° 0.1 mm 2 m/s 726 mmHg 95%
    07:00 +6°C° 0.1 mm 2 m/s 727 mmHg 95%
    08:00 +7°C° 0.1 mm 2 m/s 728 mmHg 94%
    09:00 +8°C° 0.1 mm 3 m/s 728 mmHg 90%
    10:00 +9°C° 0.1 mm 3 m/s 729 mmHg 86%
    11:00 +10°C° 0.1 mm 3 m/s 730 mmHg 82%
    12:00 +10°C° 0.2 mm 3 m/s 730 mmHg 83%
    13:00 +10°C° 0.2 mm 3 m/s 730 mmHg 83%
    14:00 +10°C° 0.2 mm 3 m/s 730 mmHg 84%
    15:00 +8°C° 0.1 mm 3 m/s 731 mmHg 88%
    16:00 +7°C° 0.1 mm 2 m/s 731 mmHg 91%
    17:00 +7°C° 0.1 mm 1 m/s 732 mmHg 95%
    18:00 +7°C° 0 mm 1 m/s 733 mmHg 95%
    19:00 +7°C° 0 mm 1 m/s 733 mmHg 95%
    20:00 +6°C° 0 mm 0 m/s 734 mmHg 95%
    21:00 +5°C° 0 mm 0 m/s 734 mmHg 95%
    22:00 +5°C° 0 mm 0 m/s 734 mmHg 95%
    23:00 +5°C° 0 mm 0 m/s 735 mmHg 95%

    24 Novembro, Domingo

    Tempo Temperatura Precipitação Vento Pressão Humidade
    00:00 +5°C° 0 mm 0 m/s 735 mmHg 94%
    01:00 +5°C° 0 mm 0 m/s 735 mmHg 94%
    02:00 +5°C° 0 mm 0 m/s 735 mmHg 94%
    03:00 +5°C° 0 mm 1 m/s 735 mmHg 94%
    04:00 +5°C° 0 mm 1 m/s 735 mmHg 94%
    05:00 +5°C° 0 mm 1 m/s 735 mmHg 94%
    06:00 +6°C° 0 mm 1 m/s 735 mmHg 92%
    07:00 +7°C° 0 mm 1 m/s 735 mmHg 91%
    08:00 +7°C° 0 mm 1 m/s 736 mmHg 89%
    09:00 +8°C° 0 mm 1 m/s 735 mmHg 88%
    10:00 +9°C° 0 mm 1 m/s 735 mmHg 87%
    11:00 +10°C° 0 mm 1 m/s 735 mmHg 87%
    12:00 +10°C° 0.1 mm 1 m/s 735 mmHg 88%
    13:00 +10°C° 0.1 mm 1 m/s 734 mmHg 89%
    14:00 +10°C° 0.1 mm 1 m/s 734 mmHg 91%
    15:00 +9°C° 0.3 mm 2 m/s 734 mmHg 92%
    16:00 +9°C° 0.3 mm 2 m/s 734 mmHg 94%
    17:00 +9°C° 0.3 mm 2 m/s 734 mmHg 96%
    18:00 +9°C° 0.2 mm 2 m/s 734 mmHg 96%
    19:00 +9°C° 0.2 mm 2 m/s 734 mmHg 96%
    20:00 +10°C° 0.2 mm 2 m/s 734 mmHg 96%
    21:00 +10°C° 0.3 mm 2 m/s 734 mmHg 96%
    22:00 +10°C° 0.3 mm 2 m/s 734 mmHg 96%
    23:00 +10°C° 0.3 mm 2 m/s 734 mmHg 96%

    25 Novembro, Segunda-feira

    Tempo Temperatura Precipitação Vento Pressão Humidade
    00:00 +10°C° 0.6 mm 2 m/s 734 mmHg 97%
    01:00 +12°C° 0.6 mm 2 m/s 734 mmHg 97%
    02:00 +12°C° 0.6 mm 2 m/s 734 mmHg 97%
    03:00 +12°C° 0.2 mm 2 m/s 734 mmHg 97%
    04:00 +12°C° 0.2 mm 2 m/s 734 mmHg 97%
    05:00 +12°C° 0.2 mm 2 m/s 734 mmHg 97%
    06:00 +13°C° 0.1 mm 2 m/s 734 mmHg 97%
    07:00 +13°C° 0.1 mm 2 m/s 734 mmHg 97%
    08:00 +13°C° 0.1 mm 1 m/s 734 mmHg 96%
    09:00 +14°C° 0.4 mm 1 m/s 734 mmHg 97%
    10:00 +14°C° 0.4 mm 1 m/s 734 mmHg 97%
    11:00 +14°C° 0.4 mm 1 m/s 734 mmHg 97%
    12:00 +14°C° 0.2 mm 1 m/s 734 mmHg 96%
    13:00 +15°C° 0.2 mm 1 m/s 734 mmHg 96%
    14:00 +15°C° 0.2 mm 1 m/s 734 mmHg 95%
    15:00 +14°C° 0.1 mm 1 m/s 734 mmHg 96%
    16:00 +14°C° 0.1 mm 1 m/s 734 mmHg 96%
    17:00 +13°C° 0.1 mm 1 m/s 734 mmHg 97%
    18:00 +13°C° 0.1 mm 1 m/s 735 mmHg 97%
    19:00 +12°C° 0.1 mm 1 m/s 735 mmHg 96%
    20:00 +12°C° 0.1 mm 1 m/s 735 mmHg 96%
    21:00 +12°C° 0.1 mm 1 m/s 735 mmHg 96%
    22:00 +12°C° 0.1 mm 1 m/s 735 mmHg 96%
    23:00 +13°C° 0.1 mm 1 m/s 734 mmHg 96%
    Mostrar mais